Regional Weather Roundup
Issued by NWS Bismarck, ND

Home | Current Version | Previous Version | Text Only | Print | Product List | Glossary On
Versions: 1 2 3 4 5 6 7 8 9 10 11 12 13 14 15 16 17 18 19 20 21 22 23 24 25 26 27 28 29 30 31 32 33 34 35 36 37 38 39 40 41 42 43 44 45 46 47 48 49 50
000
ASUS43 KBIS 152210
RWRBIS

NWR BROADCAST TEXT
NATIONAL WEATHER SERVICE BISMARCK ND
400 PM CST MON JAN 15 2018

NOTE: "FAIR" INDICATES FEW OR NO CLOUDS BELOW 12,000 FEET WITH NO
SIGNIFICANT WEATHER AND/OR OBSTRUCTIONS TO VISIBILITY.


CITY           SKY/WX    TMP DP  RH WIND       PRES   REMARKS
WILLISTON      FAIR      -6 -15  65 W7        30.85R WCI -20
MINOT          FAIR      -5 -15  62 NW12      30.83R WCI -23
MINOT AFB      CLOUDY    -6 -15  64 NW12      30.82S WCI -24
BISMARCK       FAIR      -4 -15  59 NW14      30.82R WCI -24
DICKINSON      FAIR      -4 -15  59 NW9       30.72S WCI -20
GARRISON         N/A     -5 -14  65 NW13      30.80R WCI -24
HETTINGER ARPT SUNNY     -3 -14  59 N15       30.74S WCI -23
JAMESTOWN      CLOUDY    -8 -13  78 N28G33    30.71R HAZE    WCI -36
CARRINGTON     CLOUDY    -6 -13  71 NW18      30.78R WCI -29
HAZEN          FAIR      -6 -15  65 W8        30.85R WCI -21
LINTON           N/A     -4 -17  54 NW18      30.78R WCI -26
MANDAN         FAIR      -6 -17  59 NW16      30.78S WCI -28
OAKES            N/A     -6 -15  65 NW24G31   30.70R WCI -32
RUGBY          FAIR      -9 -17  70 NW15      30.81R WCI -31
STANLEY        FAIR      -6 -15  65 NW8       30.80S WCI -21
TIOGA          FAIR      -8 -15  71 W9        30.80R WCI -25
WATFORD CITY   FAIR      -8 -17  65 W6        30.83R WCI -21
$$

CITY           SKY/WX    TMP DP  RH WIND       PRES   REMARKS
GRAND FORKS    BLWGSNOW  -8 -13  78 N23G33    30.77R VSB 3/4 WCI -34
GRAND FORKS AF PTCLDY    -8 -15  72 N21       30.78R BLWGSNOWWCI -33
DEVILS LAKE    FAIR      -9 -15  75 N17       30.78R WCI -32
FARGO          LGT SNOW  -9 -14  78 N23       30.73R VSB 1   WCI -35
CANDO          FAIR      -8 -18  59 N18       30.82R WCI -31
CAVALIER         N/A     -9 -15  77 NW22      30.81R HAZE    WCI -35
GRAFTON        HAZE      -8 -13  77 N22G35    30.82R VSB 1   WCI -33
GWINNER          N/A     -6 -13  71 N15G23    30.70R WCI -27
LANGDON        FAIR      -8 -15  71 N16       30.76R WCI -30
ROLLA          FAIR      -9 -18  64 NW14G20   30.79R WCI -31
WALHALLA       FAIR      -8 -17  65 NW16G24   30.84R WCI -30
$$

CITY           SKY/WX    TMP DP  RH WIND       PRES   REMARKS
ABERDEEN       PTCLDY    -2 -11  65 N24G30    30.72R WCI -26
MOBRIDGE       SUNNY      0 -13  54 N22G32    30.71R WCI -23
BUFFALO          N/A     -3 -12  65 NW12      30.64S WCI -21
RAPID CITY     SUNNY      3  -6  66 N28       30.66S WCI -21
GLASGOW        SUNNY    N/A N/A N/A E12       30.76F
SIDNEY         SUNNY     -1 -13  56 SW3       30.85S
WOLF POINT     SUNNY     -5 -16  59 NE3       30.84F
GLENDIVE       SUNNY     -6 -14  68 MISG        N/A
MILES CITY     SUNNY     -7 -12  79 SE7       30.76S WCI -21
BAKER          SUNNY     -7 -14  71 W6        30.72S WCI -20
$$

CITY           SKY/WX    TMP DP  RH WIND       PRES   REMARKS
BILLINGS       SUNNY      6  -2  69 NE6       30.59F WCI  -4
GREAT FALLS    MOSUNNY   18  13  80 E9        30.46F WCI   7
REGINA         PTCLDY    -4 -11  71 S8        30.79F WCI -19
ESTEVAN        PTCLDY    -4 -15  59 W7        30.81F WCI -18
$$





USA.gov is the U.S. government's official web portal to all federal, state and local government web resources and services.